Regional Weather Roundup
Issued by NWS

Home | Current Version | Previous Version | Graphics & Text | Print | Product List | Glossary On
Versions: 1 2 3 4 5 6 7 8 9 10 11 12 13 14 15 16 17 18 19 20 21 22 23 24 25 26 27 28 29 30 31 32 33 34 35 36 37 38 39 40 41 42 43 44 45 46 47 48 49 50
057
ASUS43 KLOT 140408
RWRIL

ILLINOIS REGIONAL WEATHER ROUNDUP
NATIONAL WEATHER SERVICE CHICAGO/ROMEOVILLE IL
1000 PM CST WED DEC 13 2017

NOTE: "FAIR" INDICATES FEW OR NO CLOUDS BELOW 12,000 FEET WITH NO
SIGNIFICANT WEATHER AND/OR OBSTRUCTIONS TO VISIBILITY.

* THESE STATIONS ARE NOT UNDER NWS QUALITY CONTROL. THEY ALSO MAY NOT
  REPORT WEATHER SUCH AS PRECIPITATION OR FOG.

ILZ001-002-007-009-015-016-024-140500-
NORTHWEST ILLINOIS

CITY           SKY/WX    TMP DP  RH WIND       PRES   REMARKS
MOLINE         CLOUDY    28  17  63 NW13G24   29.84R WCI  17
SAVANNA*       CLOUDY    26  16  66 N10G17    29.83R WCI  16
$$

ILZ003-004-008-010-011-017-018-140500-
NORTH CENTRAL ILLINOIS

CITY           SKY/WX    TMP DP  RH WIND       PRES   REMARKS
ROCKFORD       MOCLDY    24  17  74 N13       29.77R WCI  12
FREEPORT*      CLOUDY    24  17  75 N16G25    29.81R WCI  11
ROCHELLE*      MOCLDY    25  18  76 N17       29.76R WCI  12
DE KALB*       CLOUDY    26  20  77 NW15G21   29.74R WCI  14
PERU*          CLOUDY    27  17  67 NW22      29.77R WCI  12
$$

ILZ005-006-012>014-019>023-140500-
NORTHEAST ILLINOIS

CITY           SKY/WX    TMP DP  RH WIND       PRES   REMARKS
CHICAGO-OHARE  CLOUDY    29  20  69 N22G29    29.69R WCI  15
CHICAGO-MIDWAY FLURRIES  30  22  72 N18G30    29.68R WCI  18
AURORA         CLOUDY    27  20  75 NW17      29.73R WCI  14
LANSING*       CLOUDY    29  24  79 NW13G21   29.66R WCI  19
JOLIET*        CLOUDY    29  22  73 NW12G20   29.71R WCI  20
WAUKEGAN       LGT SNOW  27  21  78 N16G23    29.70R WCI  15
DUPAGE AIRPORT CLOUDY    27  21  78 N17       29.71R WCI  14
KANKAKEE*      CLOUDY    28  19  66 NW18      29.70R WCI  16
WHEELING       CLOUDY    29  22  75 N16G24    29.71R WCI  17
MORRIS*        MOCLDY    27  19  72 NW10G20   29.72R WCI  17
ROMEOVILLE*    CLOUDY    28  21  75 N15G23    29.71R WCI  16
NORTHERLY ISL    N/A     31  22  69 N20         N/A  WCI  19
$$

LMZ740>746-140500-
SOUTHERN LAKE MICHIGAN

STATION/POSITION SKY/WX   TEMP    WIND        PRES    VSBY  WAVE
                          AIR SEA DIR/SP/G                  HT/PER
                          (F)     (DEG/KT/KT) (MB)    (MI)  (FT/S)
HARRISON CRIB              31     350/ 34/ 39   N/A
BURNHAM HARBOR             30     360/ 17/ 22   N/A
CALUMET HARBOR             31     330/ 20/ 33 1004.0R
BURNS HARBOR               32     350/ 25/ 33 1002.7R
MICHIGAN CITY              30     340/ 31/ 35   N/A
$$

ILZ025>027-034>036-040-047-049-050-058-095>099-140500-
WEST-CENTRAL ILLINOIS

CITY           SKY/WX    TMP DP  RH WIND       PRES   REMARKS
QUINCY         CLOUDY    36  23  59 NW17G28   29.83R WCI  26
GALESBURG*     CLOUDY    29  20  71 NW16G26   29.84R WCI  17
MACOMB*        CLOUDY    33  25  73 NW20G28   29.83R WCI  21
JACKSONVILLE*  CLOUDY    35  24  63 NW28G35   29.80R WCI  22
PITTSFIELD*    CLOUDY    37  24  58 NW16G24   29.83R WCI  28
$$

ILZ028>032-037-038-041>044-048-051>054-059>061-140500-
CENTRAL ILLINOIS

CITY           SKY/WX    TMP DP  RH WIND       PRES   REMARKS
PONTIAC        CLOUDY    29  19  67 NW18G30   29.75R WCI  16
BLOOMINGTON    CLOUDY    30  22  72 N26G33    29.75R WCI  16
DECATUR        CLOUDY    34  26  72 NW22G30   29.75R WCI  22
PEORIA         CLOUDY    30  19  63 N13G32    29.80R WCI  20
LACON*         CLOUDY    28  17  61 N15G22    29.79R WCI  17
LINCOLN*       CLOUDY    34  23  64 NW14G26   29.78R WCI  24
SPRINGFIELD    CLOUDY    36  26  67 NW25G33   29.79R WCI  24
TAYLORVILLE    CLOUDY    35  25  68 NW20G33   29.79R WCI  24
$$

ILZ033-039-045-046-055>057-062-063-140500-
EAST-CENTRAL ILLINOIS

CITY           SKY/WX    TMP DP  RH WIND       PRES   REMARKS
CHAMPAIGN      CLOUDY    33  24  69 NW26G36   29.72R WCI  20
DANVILLE*      CLOUDY    30  22  70 NW22G33   29.67R WCI  17
RANTOUL*       CLOUDY    32  23  69 NW24G36   29.72R WCI  19
MATTOON        CLOUDY    35  27  72 NW28G36   29.72R WCI  22
PARIS*         CLOUDY    34  27  76 NW21G30   29.70R WCI  23
$$

ILZ079-100>102-140500-
SOUTHWEST ILLINOIS

CITY           SKY/WX    TMP DP  RH WIND       PRES   REMARKS
ALTON          MOCLDY    39  27  60 NW20G29   29.80R WCI  30
BELLEVILLE     MOCLDY    41  28  59 NW17G29   29.79R
CAHOKIA*       MOCLDY    42  28  57 NW17G26   29.82R
SPARTA*        CLEAR     41  32  69 NW10      29.81R
$$

ILZ064>066-069>071-074>076-080>082-084>086-088>090-092>094-140500-
SOUTH-CENTRAL ILLINOIS

CITY           SKY/WX    TMP DP  RH WIND       PRES   REMARKS
CARBONDALE     CLEAR     43  32  65 N13G25    29.79R
CAIRO*         PTCLDY    33  27  80 SW3       29.78R
EFFINGHAM*     CLOUDY    37  29  72 W22G33    29.77R WCI  27
MARION         CLEAR     44  32  62 N12       29.79R
MT. VERNON     PTCLDY    40  30  67 VRB5      29.77R
CENTRALIA*     MOCLDY    40  32  72 NW9       29.77R
SALEM*         CLOUDY    41  30  64 N16G23    29.77R
METROPOLIS*    CLEAR     43  30  59 W5        29.77R
$$

ILZ067-068-072-073-078-083-087-091-140500-
SOUTHEAST ILLINOIS

CITY           SKY/WX    TMP DP  RH WIND       PRES   REMARKS
LAWRENCEVILLE  CLOUDY    39  29  67 NW18      29.74R WCI  30
FLORA*         CLOUDY    40  29  65 NW24G35   29.75R
FAIRFIELD*     PTCLDY    39  30  70 NW5       29.76R
HARRISBURG*    CLEAR     44  33  66 NW17G24   29.78R
ROBINSON*      CLOUDY    37  28  71 NW21G31   29.73R WCI  26
CARMI*         MOCLDY    39  32  75 N15       29.76R WCI  31
$$

ABBREVIATIONS USED IN REMARKS
   TC - TEMPERATURE IN CELSIUS
  WCI - WIND CHILL INDEX
   HX - HEAT INDEX
  VSB - VISIBILITY
$$





USA.gov is the U.S. government's official web portal to all federal, state and local government web resources and services.